SPACEMOBILE-013

导读

SPACEMOBILE-013(NORAD编号100240)是美国AST SpaceMobile公司2026年8月5日发射的新一代蓝鸟(BlueBird)低轨直连手机通信卫星,为蓝鸟13号星,与同期入轨的蓝鸟11、12号共同组成当时近地轨道部署的最大通信阵列。该星体积是首批Block1蓝鸟卫星的3倍以上,搭载大口径相控阵天线,具备先进波束成形能力,可直接为未改装的普通智能手机提供天基蜂窝宽带服务,峰值速率接近200Mbps,支持语音、高速数据与视频传输,服务全球近60家合作运营商的30亿潜在用户,为偏远、应急场景提供无缝通信覆盖,助力AST SpaceMobile2026年内启动测试服务。

Basic Information
目录编号:
100240
目录名称:
SPACEMOBILE-013
国际标识:
2026-179A
轨道中心:
EARTH
卫星名称:
SPACEMOBILE-013
卫星全名:
SPACEMOBILE-013
卫星状态:
在轨 (已飞行19 天)
发射日期:
2026-08-05 UTC
国别 :
美国 (US)
星等 :
--
Orbit Information
数据来源 国际轨道数据 AOE轨道数据
星历时间 2026-08-23T18:06:07+0800
19小时前
查看轨道信息
2026-08-21T07:00:00+0800
3天前
查看轨道信息
半长轴 6905.06km 6905.073km
偏心率 0.0006517 0.0006515
轨道倾角 52.995° 52.996°
近地点辐角 34.498° 26.366°
升交点赤经 245.856° 257.041°
平近点角 325.643° 232.712°
近地点 522.422km 522.437km
远地点 531.424km 531.435km
周期 95.172分钟 95.173分钟
每日圈数 15.130443 15.1304
Detailed Information
使用方式:
暂无
2D Orbit Map
3D Orbit Map
Orbit Altitude Analysis Chart
Orbit Inclination Analysis Chart
Orbit Comprehensive Analysis Chart
View Comprehensive Chart